Location: Mohawk View
(42.7837°N, 73.7885°W)
Time: 12:00:34
(UTC+00:00)

FALCON 9 DEB - Pass Details

Date: 17 June 2021
Orbit: 422 x 432 km, 53.0° (Epoch: 26 July)

Event Time Altitude Azimuth Distance (km) Brightness Sun altitude
Rises 08:22:17 0° 305° (NW) 2,386 6.8 -8.6°
Reaches altitude 10° 08:24:24 10° 304° (WNW) 1,516 5.7 -8.3°
Maximum altitude 08:27:47 76° 219° (SW) 439 3.0 -7.8°
Drops below altitude 10° 08:31:09 10° 133° (SE) 1,503 5.9 -7.4°
Sets 08:33:14 0° 131° (SE) 2,363 7.0 -7.1°
